RH
90 78 94 85 59 42 42 41 29 26 17 8 12 12 9 12 20 22 16 13 15 16 14 7 9 10 8
89 93 98 78 60 53 58 46 21 15 12 11 13 12 12 18 23 19 15 15 16 18 15 8 10 11 11
96 82 97 83 69 67 66 58 23 14 14 13 13 13 16 21 23 18 16 17 18 20 14 8 10 11 13
88 75 80 93 90 77 83 60 20 20 16 16 16 18 22 28 25 18 18 20 21 21 13 8 10 10 22
95 68 83 81 88 94 63 37 22 22 20 16 16 22 27 26 21 20 21 22 23 18 11 10 10 13 36
100 84 85 97 95 63 43 36 26 21 16 15 20 30 30 25 21 21 22 24 24 15 12 10 9 15 38
92 70 64 61 61 53 42 33 22 16 14 17 27 34 30 25 22 24 25 27 19 14 13 9 14 25 46
72 62 70 72 61 45 38 31 22 21 26 33 35 38 30 24 26 28 29 25 19 14 11 8 14 26 57
74 77 72 67 49 43 37 32 28 37 40 41 44 42 30 28 30 31 31 23 19 14 12 12 22 34 60
100 97 68 51 51 49 53 52 57 54 51 49 50 47 37 34 34 34 31 27 19 15 12 16 33 42 64
68 57 57 57 56 63 69 66 62 61 63 63 59 53 42 38 42 38 41 47 21 16 19 23 33 43 64
63 69 69 69 74 75 71 69 69 71 69 63 59 56 52 53 50 59 70 33 24 20 22 26 29 39 56
79 83 88 91 85 80 79 83 89 83 81 76 74 72 70 68 73 81 50 34 32 31 30 29 30 31 40
100 100 99 94 95 99 97 98 95 93 82 77 78 78 80 83 86 67 49 36 31 36 36 35 36 32 31
99 98 98 94 94 99 100 97 96 92 86 86 88 94 99 100 83 67 63 39 30 34 39 40 41 37 33
100 100 100 100 96 98 100 100 100 98 97 100 100 94 100 100 92 85 55 36 30 32 36 40 39 36 33
100 100 100 98 96 97 100 100 100 100 100 100 93 100 100 100 99 90 50 32 28 29 41 37 29 21 20
Wind_Speed
51 48 43 41 38 41 43 40 40 40 38 39 45 47 48 52 55 53 49 48 49 51 51 51 48 48 43
43 46 46 45 43 44 44 41 41 40 42 45 47 50 54 57 54 51 47 48 48 49 50 51 48 45 38
46 49 48 49 49 51 47 48 47 44 46 48 50 53 57 57 54 47 46 46 46 48 50 50 47 42 37
48 52 51 56 51 57 54 52 51 49 50 52 56 58 60 55 51 46 45 45 46 45 50 49 46 40 34
44 42 45 44 49 53 53 54 54 52 52 55 57 58 55 53 49 46 46 46 45 46 48 47 43 35 32
40 47 47 48 52 54 54 55 53 52 54 58 60 58 54 50 47 46 45 44 44 45 47 46 42 36 33
48 46 48 53 57 56 57 55 54 55 60 62 59 53 50 46 46 46 44 45 44 44 46 43 37 32 33
51 53 55 56 58 59 57 57 55 58 60 57 54 50 46 44 44 44 44 43 44 43 42 39 35 32 33
57 59 60 61 62 61 60 59 59 59 57 54 51 48 45 44 43 43 43 42 43 42 38 35 32 31 32
64 64 62 62 63 64 63 59 58 56 54 52 49 46 45 44 42 41 41 41 41 40 39 33 30 31 30
66 63 62 64 65 63 57 56 55 55 53 48 47 45 43 42 43 40 42 41 39 37 34 31 30 31 31
65 63 64 66 62 60 55 54 55 55 51 48 44 42 43 43 41 43 43 38 37 35 34 31 31 31 30
67 66 64 55 52 53 54 54 53 51 48 47 45 44 43 43 44 44 38 35 35 35 34 31 29 30 30
60 60 57 58 57 56 55 52 52 48 46 42 40 41 44 44 46 38 36 35 34 35 34 33 30 29 29
66 66 61 58 56 51 49 48 46 45 42 41 39 41 46 47 38 36 37 36 36 36 36 37 35 33 31
57 56 53 50 47 45 46 47 46 43 41 41 43 43 42 37 36 37 38 37 37 38 39 41 39 36 33
45 46 46 46 44 45 44 44 44 42 43 45 44 43 40 39 39 37 38 38 38 40 42 42 41 40 38
Wind_Direction
273 274 270 258 264 268 272 279 279 273 271 277 284 291 290 294 299 303 308 311 312 315 315 314 316 317 314
274 270 257 257 264 270 273 280 274 272 272 278 283 289 290 294 299 302 305 309 310 312 313 315 314 314 312
273 257 258 258 262 268 273 275 270 272 275 279 284 287 290 295 297 300 301 303 306 312 311 313 312 312 310
265 256 255 264 257 262 269 270 269 274 275 278 282 287 289 297 297 296 297 301 304 309 310 312 312 310 305
262 253 254 249 255 261 264 266 270 272 276 279 284 288 296 297 295 294 297 300 304 307 309 311 311 307 300
255 253 251 257 259 261 268 272 276 277 276 280 285 290 293 295 293 292 294 297 300 303 307 309 308 307 301
259 255 254 255 258 266 272 277 277 277 279 280 286 293 294 292 289 290 294 297 300 303 306 306 306 305 302
255 254 257 261 264 269 271 275 277 279 281 287 290 293 291 289 288 291 294 298 299 301 303 303 304 304 302
253 258 260 264 268 270 272 273 275 279 284 288 293 294 292 289 290 292 295 297 298 299 301 303 304 304 301
259 262 264 267 268 271 274 279 283 285 288 293 295 294 292 289 290 292 295 297 298 298 298 298 302 302 298
265 268 269 269 270 275 282 285 285 287 289 292 293 294 291 289 290 290 292 293 293 295 295 298 299 301 296
265 269 271 272 279 281 283 284 285 287 289 289 291 291 289 286 287 288 291 287 290 291 293 298 301 300 297
270 273 275 274 278 281 281 283 285 285 286 289 291 288 285 282 286 290 285 282 288 292 294 294 294 295 299
264 273 275 276 278 278 280 280 280 280 285 286 283 282 283 282 289 282 282 281 283 289 294 294 294 293 291
271 273 277 278 276 276 276 277 277 280 281 279 279 280 284 282 277 278 279 279 279 283 290 294 294 294 289
267 270 272 274 275 275 275 274 275 275 275 275 278 286 281 272 273 275 275 275 276 280 287 292 292 291 288
269 270 270 270 272 271 271 273 273 272 273 275 281 281 271 270 272 272 272 274 277 282 287 289 288 288 283